Theta_e
357 357 356 358 358 356 355 352 352 349 349 335 317 318 322 335 336 332 335 335 336 336 335 330 332 334 333 331 331 331 330 330 330 328 330 329 329 329 329 329 331 329 329
358 356 356 355 356 357 354 354 347 333 326 320 315 317 329 326 331 325 336 335 334 334 333 333 334 334 335 335 333 332 333 331 331 331 329 330 330 329 329 327 328 327 327
357 358 358 356 354 355 354 350 337 331 325 321 318 315 319 320 323 321 324 336 335 334 334 334 335 335 334 334 333 333 331 331 332 329 329 328 328 327 327 327 327 326 325
355 356 357 357 356 355 352 344 337 324 321 321 321 316 318 324 322 331 327 335 337 336 334 334 335 335 334 333 334 335 332 332 332 330 329 329 328 326 327 326 326 326 326
354 356 356 358 357 355 354 346 340 328 319 319 320 316 320 332 335 338 336 335 337 337 334 335 335 334 336 334 334 330 331 331 331 330 329 327 328 327 327 327 327 326 326
356 357 359 360 360 357 354 352 348 339 328 326 322 317 318 330 333 330 331 331 335 335 334 334 335 334 333 332 327 328 331 329 329 328 328 327 326 327 327 326 326 325 323
356 359 360 361 360 360 357 355 352 344 337 333 324 320 324 333 333 326 321 327 333 334 333 333 333 335 330 327 330 329 327 325 328 328 327 327 327 325 323 323 324 323 322
358 360 360 360 359 359 357 353 350 348 343 338 332 327 334 337 334 328 327 326 327 329 334 336 336 333 328 327 327 327 324 326 328 328 328 326 326 324 318 317 318 317 318
361 359 361 360 357 353 350 347 347 347 347 343 337 335 337 338 334 332 332 327 331 332 334 335 333 327 326 326 325 324 326 327 330 328 326 325 323 317 317 317 319 318 318
359 359 360 351 345 343 343 345 347 348 349 344 341 338 340 340 339 336 334 330 331 332 333 334 326 326 325 325 323 325 327 329 327 326 326 323 319 320 317 318 318 320 319
355 356 356 346 343 344 346 348 347 345 345 343 341 340 340 340 338 336 330 326 331 332 334 332 327 326 327 324 324 326 325 323 322 321 321 321 321 319 317 317 317 316 315
352 356 348 345 345 348 349 349 346 344 342 341 340 342 342 339 337 331 328 329 330 332 331 331 331 329 326 325 323 322 321 320 320 319 320 321 320 316 315 315 314 312 310
356 351 346 352 351 350 347 345 343 341 344 343 343 341 341 339 336 334 331 330 331 328 328 327 329 328 325 323 321 319 319 318 318 320 320 318 314 314 313 312 311 308 305
354 346 348 353 351 349 345 343 342 342 341 343 342 341 339 338 338 335 333 330 327 327 327 327 327 324 322 320 318 318 317 318 319 318 314 314 313 312 311 309 307 306 306
350 353 351 350 348 348 345 343 342 343 341 342 340 337 337 336 336 334 328 327 329 328 328 326 324 324 323 322 321 319 318 318 316 315 313 312 310 309 308 306 305 306 308
354 352 350 346 347 344 343 342 342 339 338 337 335 333 334 332 332 329 329 326 328 327 324 323 322 322 321 320 320 319 318 315 314 313 310 309 308 307 306 305 306 307 308
348 346 346 346 344 343 341 340 338 337 335 329 327 327 327 327 327 326 326 325 323 321 318 320 321 321 320 319 317 315 313 313 311 309 308 307 306 305 305 305 306 307 309
347 345 343 344 342 341 340 338 335 334 332 329 328 327 327 326 324 325 325 322 319 318 318 319 320 318 317 315 313 313 312 310 308 306 305 305 305 305 304 305 305 306 307
343 341 341 339 338 337 335 334 333 333 332 331 328 324 326 325 325 323 320 319 321 322 320 319 317 316 315 313 312 311 309 307 304 302 304 305 304 304 304 304 305 305 306
339 338 337 336 335 334 333 332 331 330 329 330 329 325 325 325 322 321 320 319 321 320 319 318 316 315 314 313 311 309 306 303 303 304 304 304 303 303 303 304 304 305 306
334 334 334 335 333 332 331 330 329 327 327 326 327 326 325 322 323 323 322 321 320 319 318 317 316 315 313 312 309 306 303 302 303 303 303 303 303 303 303 303 304 304 305
333 333 332 332 330 328 328 328 327 326 326 325 325 325 325 324 323 323 322 321 320 319 318 316 315 314 311 308 305 303 301 302 302 303 302 302 302 303 303 303 304 304 304
332 331 330 328 328 328 328 328 326 326 325 325 326 326 324 323 322 322 321 320 318 317 316 314 313 311 308 305 301 300 300 302 302 301 301 302 302 303 303 304 303 303 304
330 329 329 329 329 328 326 325 325 325 324 324 324 323 323 322 320 320 319 318 317 316 314 313 311 309 307 303 300 299 299 300 300 299 301 301 302 303 303 303 303 303 303
330 328 327 326 326 325 324 323 323 323 322 322 321 322 321 319 319 318 317 316 315 315 313 312 309 307 306 302 299 298 298 297 295 295 295 299 302 302 303 302 302 302 303
326 326 325 324 323 322 322 321 321 321 321 320 319 318 319 318 317 316 316 314 314 313 312 311 309 307 305 302 299 297 296 295 296 296 297 297 302 302 302 301 302 302 302
Wind_Speed
35 31 30 29 28 27 29 29 28 28 25 26 21 19 18 16 15 12 11 13 10 9 10 13 13 13 9 9 9 9 10 12 16 18 16 15 16 18 18 18 18 19 22
34 35 34 33 32 32 32 33 35 33 32 28 25 23 21 15 16 11 13 12 13 12 14 14 13 11 14 10 9 12 13 16 16 20 20 17 17 19 19 22 22 20 21
34 33 34 35 37 37 37 38 37 38 36 34 30 30 23 16 18 14 14 14 14 14 13 14 13 14 15 15 15 15 14 15 15 19 18 19 20 21 20 22 24 24 24
32 33 36 40 39 39 42 45 42 41 40 39 37 35 29 20 19 15 14 15 16 15 14 15 15 17 18 18 17 18 19 18 15 19 19 20 20 24 21 23 23 24 25
35 34 37 38 37 40 43 47 45 43 44 43 43 38 32 23 18 16 17 18 17 17 16 15 15 16 18 17 18 21 24 22 22 22 24 23 24 22 23 26 26 25 25
36 37 36 37 39 43 46 47 45 46 46 44 43 40 40 28 23 20 23 19 20 20 18 17 19 22 23 24 25 25 27 27 30 28 26 25 27 26 24 25 22 25 29
38 36 34 39 41 44 43 42 41 43 48 43 51 47 31 25 25 22 24 23 21 19 21 22 19 18 22 23 27 29 27 21 26 26 28 27 25 23 23 26 24 27 29
38 35 37 40 41 39 36 33 31 32 45 47 46 35 23 21 25 24 25 26 26 25 21 19 19 20 22 26 29 30 26 24 25 25 25 25 22 23 26 29 32 31 28
32 36 37 40 37 32 31 27 24 26 34 40 40 33 27 25 25 26 24 30 25 23 21 21 22 24 29 31 30 24 24 24 19 23 25 26 29 27 23 21 19 22 26
32 33 34 32 30 27 23 22 20 22 23 24 22 25 25 23 24 25 26 25 25 23 24 27 25 28 29 26 22 24 21 19 19 20 22 22 24 23 22 22 23 23 25
26 26 28 28 27 23 21 19 18 20 19 23 20 21 22 22 22 20 20 21 21 20 19 25 24 29 22 21 21 23 24 24 25 24 21 19 20 21 19 19 20 23 26
28 27 26 26 24 21 19 19 18 17 17 16 19 17 15 17 20 22 19 19 22 25 22 19 21 23 20 22 23 24 24 23 23 18 17 19 20 20 20 20 25 27 25
26 27 27 27 24 21 19 18 18 15 14 14 13 12 12 14 16 20 22 23 24 23 24 25 23 20 21 23 23 20 17 18 14 14 17 18 19 20 23 21 21 23 24
26 24 26 27 24 21 18 18 16 15 14 13 13 13 11 12 13 13 19 18 19 21 24 21 22 22 22 18 17 15 14 8 12 15 16 16 18 18 19 19 21 21 21
19 22 22 23 23 20 16 15 12 16 16 12 9 7 10 10 12 10 8 6 10 13 14 11 14 10 11 13 13 13 12 12 13 14 15 16 17 17 18 18 19 19 21
22 22 23 21 21 19 18 19 18 14 15 15 9 10 13 12 11 11 13 14 16 16 15 12 13 13 14 14 13 13 13 13 14 14 15 14 15 16 17 17 17 18 20
17 18 17 16 17 17 15 14 14 19 14 11 10 10 14 12 13 13 14 14 14 14 11 10 12 12 12 12 12 13 13 12 16 15 13 15 14 14 15 16 17 18 19
15 17 16 16 17 15 14 13 12 8 9 10 15 12 11 12 13 14 13 12 11 10 10 10 10 10 11 11 11 11 12 12 12 12 12 12 12 13 14 15 16 18 20
14 14 14 15 15 14 13 12 11 11 8 12 9 12 14 13 13 13 12 10 9 10 10 9 9 9 10 11 11 11 11 11 12 12 9 10 11 12 13 15 16 18 20
12 16 15 15 11 10 11 11 10 10 9 14 7 6 11 13 12 12 13 10 10 11 10 10 10 9 9 10 10 10 10 10 9 9 9 9 10 11 13 14 15 17 18
11 17 15 12 11 11 9 8 8 8 9 9 10 15 17 8 9 12 10 9 10 10 11 11 10 9 8 9 9 9 9 8 8 8 8 9 10 11 12 13 15 16 17
12 13 13 12 12 9 8 7 6 8 8 7 8 10 13 11 11 11 12 13 11 11 11 11 10 9 9 10 10 10 8 8 8 7 8 8 9 10 12 12 14 15 16
13 13 13 11 9 8 8 7 8 10 10 8 6 7 8 11 12 13 16 15 12 11 11 10 9 8 10 10 8 8 7 7 7 7 7 8 8 10 11 12 13 14 15
11 11 10 11 11 9 10 10 9 9 11 7 8 11 10 9 12 14 14 9 11 11 11 11 9 10 10 11 8 7 7 9 7 4 8 6 8 10 10 11 12 12 14
11 11 11 8 10 9 10 11 12 10 8 9 15 13 11 11 12 12 17 15 12 11 11 11 10 10 11 10 8 10 16 17 14 12 9 7 7 10 10 9 11 10 11
7 7 6 8 9 9 10 11 11 10 10 10 11 10 10 9 11 12 12 10 13 14 11 11 11 11 11 10 9 15 14 12 12 11 9 5 5 7 8 7 9 9 9
Wind_Direction
206 206 207 209 209 214 205 213 211 213 224 220 233 226 219 209 217 220 210 211 245 258 259 244 249 253 261 267 275 282 291 296 299 301 303 299 290 290 288 282 278 282 283
206 206 209 210 207 210 210 210 222 226 233 236 236 220 209 216 216 219 223 218 231 233 241 241 242 250 261 271 277 277 272 283 285 287 304 306 298 298 292 293 288 286 282
207 208 209 211 213 208 215 217 226 226 230 236 230 222 218 218 223 239 233 227 228 231 239 240 241 247 253 255 258 264 269 277 285 292 295 290 286 289 290 294 291 288 288
206 206 211 214 210 209 219 229 231 229 234 234 234 228 225 229 229 226 234 228 230 239 240 239 241 248 257 268 270 269 277 275 277 289 286 287 287 288 284 287 288 289 287
202 206 213 214 212 212 218 233 235 233 234 235 236 233 230 226 228 228 222 221 231 242 236 241 254 266 255 262 269 277 280 280 283 285 287 290 287 290 291 294 288 287 288
202 207 210 214 213 214 222 230 234 233 232 232 233 237 241 230 236 251 238 225 229 237 239 239 240 254 262 264 275 281 283 278 283 281 284 284 284 291 291 293 290 289 290
203 204 204 210 221 228 228 233 241 234 230 229 238 240 236 235 237 260 234 225 231 243 250 252 254 257 264 282 289 287 287 288 279 279 282 284 285 290 289 289 287 281 285
202 197 200 213 223 229 233 237 236 229 230 231 237 231 230 239 238 251 243 227 236 237 242 250 254 260 280 285 291 290 282 277 275 276 281 289 286 287 286 288 290 291 294
195 196 199 212 220 225 228 225 224 220 220 228 230 229 235 245 242 249 248 231 243 251 250 246 256 270 279 289 292 278 275 277 278 286 282 279 284 291 295 298 295 293 290
188 189 198 210 212 214 217 219 216 219 224 219 221 226 236 238 248 255 242 239 248 249 251 255 265 276 280 284 271 274 276 281 285 277 279 284 298 301 306 297 295 285 292
179 182 191 199 202 205 206 210 214 210 219 221 224 221 236 244 248 233 230 240 241 252 250 257 271 278 274 266 270 274 278 278 275 277 282 288 287 290 289 287 282 286 290
175 180 188 190 190 192 194 201 208 205 213 215 215 226 244 237 234 228 234 243 250 245 247 261 271 265 264 268 279 281 284 283 280 281 282 283 287 289 291 286 278 291 297
175 185 184 183 178 186 187 193 195 202 199 210 221 237 246 245 245 233 243 247 253 250 251 259 256 262 268 281 283 285 283 284 278 282 285 286 290 291 293 303 301 297 299
186 184 176 174 178 180 183 199 194 203 204 215 229 238 228 234 248 225 246 250 248 246 249 253 257 268 281 281 290 291 306 280 273 273 286 294 296 300 300 303 305 306 304
171 169 170 179 179 169 177 185 195 205 206 214 228 249 235 233 229 240 278 253 232 219 232 237 273 280 280 280 271 285 284 275 280 282 290 295 300 302 304 309 309 310 306
163 166 172 172 166 182 186 195 204 210 218 222 215 197 225 226 243 243 242 235 218 230 242 256 267 269 271 278 280 278 278 279 286 288 291 299 299 305 310 315 317 314 313
160 164 165 164 178 184 186 198 212 215 223 211 217 235 237 249 236 249 251 240 243 253 267 269 266 273 274 273 273 275 277 280 277 296 298 297 304 309 317 319 320 322 323
165 165 175 177 184 187 184 195 200 195 210 240 240 246 234 232 250 249 239 239 250 267 267 259 266 271 275 276 275 275 278 282 288 292 291 300 307 312 318 320 323 325 328
165 172 183 180 182 182 191 194 198 211 209 202 277 227 228 241 234 225 233 235 243 255 257 259 262 268 275 273 274 277 281 287 281 287 294 303 307 314 318 321 325 328 330
173 181 175 172 178 181 182 178 189 202 211 231 209 219 250 234 230 248 252 246 244 248 252 246 252 261 266 265 270 275 283 289 289 291 294 299 310 315 320 324 329 332 334
174 168 163 169 168 170 171 182 198 212 221 236 242 229 242 254 233 239 234 248 247 245 247 244 255 263 272 269 269 272 276 280 280 288 294 303 312 321 324 327 332 333 335
177 183 177 173 165 166 181 189 215 232 241 251 254 230 230 232 244 244 247 242 246 246 245 250 253 267 271 264 262 267 269 269 275 283 294 309 319 325 323 333 334 336 338
174 170 172 183 193 200 214 214 225 241 250 242 235 215 236 250 249 251 250 239 242 243 248 249 259 265 266 264 266 258 254 261 264 279 299 310 321 320 330 333 337 337 341
180 194 200 205 209 214 225 232 230 243 240 239 244 250 252 241 244 251 252 240 237 239 248 255 260 255 256 255 266 261 258 245 241 282 286 303 319 320 330 336 337 338 340
199 204 204 208 231 231 241 239 243 229 219 239 254 240 232 226 232 245 265 268 252 237 246 252 259 263 262 255 228 243 246 257 269 279 283 296 308 325 329 334 336 346 342
211 188 214 234 242 248 251 255 257 247 235 239 250 243 235 243 241 238 235 254 224 247 243 254 259 253 255 260 249 242 260 268 276 281 283 276 321 317 320 344 339 349 344